CZ-6A DEB, 60838

Orbit data source: Space-Track

CZ-6A DEB, 60838 is space debris in LEO originally from a launch on Tue, 06 Aug 2024 UTC launched from the Taiyaun Space Center, China (TSC). Debris objects in space refer to the collection of defunct objects orbiting the Earth. Examples of debris include non-operational satellites, rocket bodies, and fragments generated from explosions, collisions, or faulty payload assembly.

Loading next visibility...
Identifier
60838, 2024-140HR
Orbit
LEO
Country
Flag of CNCN / PRC
Related business
Manufacturer
SAST
Mission
Spacecraft
Bus & Motor
Unknown
Mass
Unknown
Launch date (UTC)
2024-08-06 (2 years ago)
Launch vehicle
Unknown
Launch site
Taiyaun Space Center, China (TSC)
Object type
Payload
Rocket body
Debris
Shape & HBR
Unknown shape, 0.1 m
Radar Cross Section
Medium (>0.1 m² and <1 m²)

Expand to show TLE details & history
Last TLE update: 13 hours ago

TLE from 13 hours ago
0 CZ-6A DEB
1 60838U 24140HR  26171.32315514  .00002200  00000-0  53030-3 0  9995
2 60838  89.0817 277.4079 0068889 234.1404 125.3394 14.51500132 97895
Epoch: 2026-06-20T07:45Z
TLE epoch observation values (Epoch: 2026-06-20T07:45:20.604Z)
Latitude
0.00002°
Longitude
-107.46738°
Altitude
752.367 km
Speed
7.463 km/s
True Right ascension
18h 29m 37s
True Declination
0° 00' 00"
Sunlit
Object was in full shadow at epoch
Visualization orbit readout
Latitude
Unknown
Longitude
Unknown
Altitude
Unknown
Speed
Unknown
Apparent Right ascension
Unknown
Apparent Declination
Unknown
Sunlit
N/A
Visualization observer readout
Local Sidereal Time
07:13:51
Azimuth
Unknown
Elevation
Unknown
Doppler factor
Unknown
Orbital elements
Apogee altitude
766.541 km
Perigee altitude
668.776 km
Semi-major axis
7,095.796 km
Eccentricity
0.00689
Inclination
89.0817°
RAAN
277.4079°
Arg. of periapsis
234.1404°
True anomaly
125.98015°
Mean anomaly
125.3394°
Eccentric anomaly
125.66009°
Mean motion
3.63113 °/min
Orbital period
99.14 mins
BSTAR
0.0005303
Loading maneuver chart data...
Computing Atmospheric mass density...
Loading historical data...
Loading historical data...
Loading historical data...
Loading historical data...
Loading historical data...
Loading historical data...
Loading historical data...

Documentation

Showing up to 5 results
|